Date,TemperatureHighF,TemperatureAvgF,TemperatureLowF,DewpointHighF,DewpointAvgF,DewpointLowF,HumidityHigh,HumidityAvg,HumidityLow,PressureMaxIn,PressureMinIn,WindSpeedMaxMPH,WindSpeedAvgMPH,GustSpeedMaxMPH,PrecipitationSumIn
2013-1-1,32.4,28.7,26.6,31.6,22.3,14.0,97,78,51,29.06,28.97,7,2,9,0.00
2013-1-2,18.0,12.7,11.8,-1.6,-4.2,-6.2,49,46,35,29.15,29.09,8,2,10,0.00
2013-1-3,28.9,21.2,13.1,21.6,8.3,-6.2,79,58,35,29.21,29.09,14,6,15,0.00
2013-1-4,27.1,21.3,14.4,18.1,11.9,3.8,91,67,46,29.23,29.18,16,6,18,0.00
2013-1-5,38.8,30.7,19.9,32.6,22.2,13.4,96,73,39,29.23,28.91,11,5,13,0.00
2013-1-6,35.2,28.7,18.1,29.1,22.4,15.4,90,77,68,29.32,28.91,17,5,19,0.00
2013-1-7,36.3,27.3,18.1,24.0,19.1,15.4,93,73,43,29.35,29.12,12,4,13,0.00
2013-1-8,45.1,33.1,23.2,27.7,21.6,13.8,85,65,29,29.21,29.06,13,3,18,0.16
2013-1-9,44.2,34.8,25.7,35.8,27.4,22.5,91,75,49,29.44,29.06,16,4,16,0.16
2013-1-10,53.1,38.1,25.9,52.0,29.1,17.1,97,72,39,29.44,28.76,14,5,16,0.75
2013-1-11,59.9,53.0,44.8,56.0,46.6,40.7,97,80,51,28.94,28.76,17,6,19,0.75
2013-1-12,63.9,55.7,41.5,55.6,50.6,40.2,97,84,52,28.91,28.64,12,4,15,1.73
2013-1-13,55.6,35.7,20.3,54.8,33.6,11.7,97,92,73,29.26,28.64,11,3,13,2.01
2013-1-14,23.7,20.0,15.1,16.8,12.6,5.0,91,73,46,29.35,29.12,0,0,0,0.00
2013-1-15,32.4,24.4,15.3,21.7,13.9,3.8,92,67,31,29.32,28.94,7,0,7,0.00
2013-1-16,35.4,29.0,20.8,25.1,18.1,7.9,95,66,34,29.09,28.88,12,4,14,0.00
2013-1-17,39.6,27.2,18.0,28.9,14.4,6.6,90,61,30,29.38,29.00,12,3,15,0.00
2013-1-18,40.3,30.9,18.0,15.6,11.6,1.0,81,48,21,29.38,28.97,15,6,19,0.00
2013-1-19,53.4,40.1,22.8,29.7,16.7,-4.0,61,40,23,29.06,28.76,34,10,34,0.00
2013-1-20,41.7,23.5,19.4,26.3,1.3,-4.3,54,38,26,29.18,28.79,21,7,25,0.00
2013-1-21,20.5,12.3,5.9,8.3,-10.1,-23.5,76,36,27,29.21,29.00,19,9,22,0.00
2013-1-22,13.8,8.4,2.5,-14.0,-18.7,-23.9,27,27,27,29.26,29.15,13,6,18,0.00
2013-1-23,20.3,15.1,8.2,12.6,-3.7,-18.0,85,46,23,29.35,29.00,14,6,19,0.00
2013-1-24,25.3,17.4,8.1,12.4,0.3,-8.8,85,50,24,29.50,29.06,13,5,13,0.00
2013-1-25,26.2,22.4,17.6,15.9,10.7,-1.1,83,61,42,29.29,28.94,12,5,13,0.00
2013-1-26,29.5,22.7,16.5,15.1,9.0,5.1,71,56,37,29.35,29.00,10,3,12,0.04
2013-1-27,46.6,30.0,17.8,45.2,22.2,9.1,97,75,42,29.35,28.91,13,5,15,0.16
2013-1-28,55.8,49.9,36.7,54.6,49.0,35.9,97,97,96,29.03,28.79,12,5,17,0.04
2013-1-29,64.8,58.4,52.0,56.1,54.2,50.8,97,86,74,28.91,28.29,18,7,23,0.43
2013-1-30,64.8,41.0,19.0,56.0,36.9,2.7,97,85,56,28.70,28.20,25,9,29,0.63
2013-1-31,27.1,21.0,8.4,21.2,9.7,-2.2,88,62,44,29.00,28.50,24,11,25,0.00
2013-2-1,17.8,12.4,5.0,10.1,-3.1,-7.8,76,50,40,29.29,29.03,14,6,15,0.00
2013-2-2,26.2,20.2,13.1,22.4,13.8,0.6,91,76,52,29.15,28.85,11,4,12,0.00
2013-2-3,22.6,16.9,12.0,14.6,8.7,-0.4,81,70,52,29.00,28.85,16,4,16,0.00
2013-2-4,35.8,25.7,15.3,23.7,16.4,7.6,88,70,34,29.00,28.73,8,2,9,0.04
2013-2-5,34.9,28.9,19.2,27.7,20.1,12.1,90,71,41,29.12,28.76,12,4,15,0.00
2013-2-6,42.4,32.3,28.0,24.8,16.7,5.1,80,56,23,29.18,28.97,9,3,15,0.00
2013-2-7,55.0,39.7,29.8,41.7,29.1,17.6,97,71,25,29.12,28.73,14,6,19,0.08
2013-2-8,42.1,32.7,23.0,41.3,24.4,14.4,97,72,51,29.26,28.73,17,6,17,0.08
2013-2-9,41.2,33.0,25.9,24.1,14.9,8.7,92,49,28,29.32,29.03,11,5,14,0.00
2013-2-10,51.1,44.8,31.1,49.4,32.5,13.3,97,65,29,29.12,28.61,20,6,26,0.00
2013-2-11,50.4,35.6,28.8,48.2,22.5,14.6,93,59,42,29.03,28.61,24,10,28,0.00
2013-2-12,41.9,31.3,26.6,25.8,20.7,15.3,83,66,38,29.03,28.76,15,4,15,0.00
2013-2-13,44.2,33.5,26.4,33.6,21.1,13.2,95,62,30,28.85,28.70,13,4,13,0.00
2013-2-14,48.4,36.7,29.8,34.0,26.5,19.0,96,68,42,28.94,28.70,17,7,23,0.00
2013-2-15,35.4,26.4,18.0,28.1,17.7,5.9,89,70,38,29.09,28.88,11,2,13,0.00
2013-2-16,24.4,18.9,11.8,18.3,4.8,-9.1,82,56,25,29.09,28.97,13,4,16,0.00
2013-2-17,34.3,21.8,10.8,4.9,0.1,-8.5,63,41,20,29.15,28.91,12,4,16,0.00
2013-2-18,58.1,41.2,22.1,42.4,21.8,-1.2,97,51,26,29.09,28.50,24,8,28,0.08
2013-2-19,45.5,21.8,12.7,41.5,11.9,-2.0,97,66,46,29.15,28.50,23,10,27,0.08
2013-2-20,22.3,18.9,10.2,10.4,5.3,-2.3,72,55,41,29.26,29.03,13,5,15,0.00
2013-2-21,29.1,24.9,21.0,28.0,15.0,6.3,97,67,41,29.26,28.79,20,7,20,0.00
2013-2-22,37.4,31.1,24.6,36.5,27.2,17.5,97,86,62,28.94,28.79,12,6,19,0.20
2013-2-23,33.4,27.6,22.3,27.9,16.5,11.3,87,63,42,28.97,28.85,12,6,15,0.00
2013-2-24,41.0,26.4,21.0,20.2,14.6,8.5,91,64,28,29.12,28.91,10,2,12,0.00
2013-2-25,47.1,33.1,20.8,29.9,18.4,7.6,94,59,22,29.12,28.64,15,6,17,0.00
2013-2-26,40.5,35.7,31.3,39.7,32.6,18.7,97,89,57,28.85,28.38,15,5,22,0.39
2013-2-27,40.5,34.3,31.8,39.7,33.1,29.1,97,96,81,28.64,28.41,15,7,17,0.12
2013-2-28,37.6,33.7,32.2,33.6,31.1,27.3,97,90,71,28.91,28.56,13,4,13,0.08
2013-3-1,35.2,29.0,25.2,32.7,20.3,12.5,97,71,53,29.00,28.88,8,3,10,0.00
2013-3-2,33.3,27.5,25.3,20.8,10.9,5.7,82,50,33,29.03,28.97,10,3,14,0.00
2013-3-3,32.9,21.8,13.5,20.8,9.5,4.0,82,61,31,29.06,28.97,10,2,12,0.00
2013-3-4,44.1,30.6,13.5,31.4,19.0,0.7,97,70,20,29.09,28.85,12,5,13,0.00
2013-3-5,34.9,29.0,26.6,31.9,27.1,21.3,97,93,67,28.94,28.59,12,2,13,0.04
2013-3-6,36.3,31.6,26.6,30.9,27.6,17.7,97,86,49,29.23,28.67,8,3,9,0.00
2013-3-7,39.9,31.2,23.9,30.9,20.1,10.9,97,65,31,29.38,29.18,8,2,9,0.16
2013-3-8,35.8,25.2,21.6,25.5,17.9,14.9,85,74,42,29.38,29.32,4,1,5,0.00
2013-3-9,66.2,59.7,54.3,29.2,22.1,15.3,36,24,15,28.79,28.70,14,5,15,0.00
2013-3-10,57.9,55.5,51.8,43.4,33.4,24.6,73,45,28,28.70,28.61,15,7,19,0.00
2013-3-11,53.4,42.0,33.1,52.3,38.2,26.1,97,87,59,28.85,28.53,21,8,22,0.24
2013-3-12,40.6,33.2,27.0,32.5,23.7,11.3,97,70,36,28.97,28.76,18,8,21,0.00
2013-3-13,32.2,27.0,20.8,27.7,10.2,3.1,85,50,31,29.23,28.91,15,6,18,0.00
2013-3-14,44.2,31.5,18.7,28.9,14.5,1.6,94,56,20,29.26,28.94,12,4,14,0.00
2013-3-15,50.9,39.7,29.7,39.2,32.3,24.3,97,77,38,29.06,28.56,12,4,12,0.04
2013-3-16,44.2,37.6,31.3,40.9,32.9,14.7,97,83,70,29.06,28.56,10,2,11,0.04
2013-3-17,39.0,32.2,28.4,30.8,17.8,7.6,96,57,30,29.12,28.70,14,6,17,0.04
2013-3-18,41.7,34.3,28.0,40.9,30.3,5.0,97,86,52,28.94,28.50,23,6,26,0.12
2013-3-19,38.7,29.9,23.5,24.0,5.2,-0.7,70,36,21,29.00,28.73,22,10,27,0.00
2013-3-20,31.5,25.2,20.3,10.8,0.7,-8.8,55,35,21,29.00,28.88,18,8,20,0.00
2013-3-21,35.6,24.1,15.3,8.9,3.3,-4.2,68,43,22,28.97,28.88,13,4,15,0.00
2013-3-22,45.1,29.2,14.7,16.4,7.0,0.2,76,43,20,28.97,28.91,10,2,12,0.00
2013-3-23,52.7,35.0,24.1,20.5,12.9,3.9,66,43,18,29.00,28.79,10,4,12,0.00
2013-3-24,35.4,30.7,28.8,28.9,23.0,13.1,97,75,41,28.88,28.44,18,8,20,0.00
2013-3-25,36.7,31.9,28.6,30.9,28.0,24.7,97,86,69,28.97,28.44,11,4,13,0.00
2013-3-26,40.5,33.9,30.7,30.3,23.8,14.0,96,68,36,29.18,28.88,12,5,14,0.08
2013-3-27,44.2,33.6,24.8,24.1,18.4,11.6,88,56,29,29.23,29.15,13,4,14,0.00
2013-3-28,48.6,34.7,24.6,25.4,16.9,6.4,87,54,19,29.26,29.21,11,2,11,0.00
2013-3-29,56.8,37.9,27.0,29.4,19.4,10.6,83,52,17,29.23,29.15,10,1,12,0.00
2013-3-30,63.7,46.1,26.8,29.0,19.6,11.0,81,40,15,29.15,28.73,10,2,11,0.00
2013-3-31,62.6,47.6,35.8,45.3,30.1,16.5,96,55,18,28.91,28.67,15,5,20,0.00
2013-4-1,46.8,34.7,22.3,28.3,10.4,1.2,61,38,19,29.12,28.76,14,4,15,0.00
2013-4-2,46.0,31.2,21.0,16.0,4.6,-5.4,77,35,18,29.26,29.06,15,3,16,0.00
2013-4-3,55.4,34.9,19.4,11.9,4.1,-3.0,55,29,17,29.35,29.18,10,2,11,0.00
2013-4-4,61.7,41.5,30.2,17.3,10.4,0.6,50,30,16,29.26,28.91,10,2,10,0.00
2013-4-5,63.5,45.0,33.1,20.4,13.5,3.2,50,30,15,29.09,28.91,12,2,14,0.00
2013-4-6,70.5,53.8,35.6,19.1,14.9,6.6,45,22,14,29.12,28.70,22,7,22,0.00
2013-4-7,70.9,59.6,50.7,34.1,25.7,17.1,46,29,14,28.91,28.70,15,6,22,0.00
2013-4-8,75.0,60.5,47.5,54.0,44.5,28.6,85,59,26,28.94,28.76,20,5,24,0.00
2013-4-9,84.0,68.6,54.0,54.8,44.6,31.0,78,46,16,28.97,28.79,16,5,23,0.00
2013-4-10,81.1,62.7,51.4,63.9,55.0,48.7,97,80,33,28.85,28.67,20,6,21,1.54
2013-4-11,69.1,55.1,45.9,61.5,52.9,25.4,97,93,55,28.76,28.50,16,4,21,0.87
2013-4-12,50.0,40.9,36.9,49.2,31.5,20.6,97,71,40,28.85,28.50,17,8,21,0.08
2013-4-13,45.7,40.3,36.9,37.9,28.2,18.3,97,64,35,28.97,28.85,18,4,20,0.04
2013-4-14,71.1,55.3,38.8,44.0,31.4,22.5,73,43,16,28.97,28.79,14,5,15,0.00
2013-4-15,70.0,60.8,52.2,51.3,44.6,30.7,84,56,33,28.94,28.79,10,4,11,0.00
2013-4-16,62.4,52.1,46.8,52.4,48.7,40.2,97,89,48,29.15,28.82,10,2,15,0.55
2013-4-17,68.7,56.4,46.6,62.5,51.0,42.9,97,83,63,29.15,28.70,15,6,15,0.47
2013-4-18,78.1,62.2,40.3,62.8,56.9,29.7,97,86,39,28.85,28.47,18,5,22,0.91
2013-4-19,61.2,38.3,32.7,60.3,30.9,18.8,97,76,43,29.00,28.47,22,9,26,0.39
2013-4-20,49.3,37.1,31.6,32.3,16.3,4.7,94,46,19,29.44,28.88,14,4,17,0.00
2013-4-21,56.7,41.6,27.3,31.1,16.7,6.2,88,40,17,29.47,29.23,12,5,12,0.00
2013-4-22,69.1,48.5,33.6,44.6,26.0,13.5,92,46,14,29.29,28.97,8,2,9,0.00
2013-4-23,71.6,58.5,45.9,57.0,44.3,25.1,97,67,19,29.03,28.70,12,3,15,0.47
2013-4-24,57.6,41.1,34.5,56.7,31.7,18.5,97,72,29,29.15,28.70,13,4,16,0.71
2013-4-25,54.5,41.8,33.8,36.3,21.4,8.0,84,49,17,29.35,29.12,20,4,22,0.00
2013-4-26,70.2,50.3,31.5,46.6,21.7,13.5,86,38,14,29.35,29.23,9,2,10,0.00
2013-4-27,73.9,56.9,39.7,48.5,31.5,14.0,77,45,13,29.26,28.85,13,4,17,0.31
2013-4-28,62.6,57.9,53.8,58.3,55.6,47.4,97,92,73,28.97,28.76,8,2,11,0.43
2013-4-29,74.8,61.1,54.5,57.1,48.6,31.5,97,70,21,28.91,28.82,10,3,10,0.00
2013-4-30,85.3,67.0,51.6,57.0,42.6,34.7,92,47,19,29.06,28.88,10,2,13,0.00
2013-5-1,90.7,72.0,54.0,65.9,40.3,27.9,84,38,12,29.12,29.00,10,2,11,0.00
2013-5-2,84.2,69.7,60.6,49.8,40.7,29.8,63,38,16,29.15,28.97,12,4,12,0.00
2013-5-3,82.0,70.0,61.2,49.9,36.1,19.4,66,32,16,29.03,28.88,14,5,17,0.00
2013-5-4,76.1,63.3,54.9,44.5,31.4,18.1,67,36,13,28.97,28.88,13,3,15,0.00
2013-5-5,71.1,59.3,54.3,49.5,39.4,22.0,78,51,16,28.94,28.88,14,3,14,0.00
2013-5-6,74.1,63.6,54.0,49.0,41.3,32.0,73,46,23,28.94,28.88,14,3,15,0.00
2013-5-7,81.7,66.5,55.4,62.4,45.5,29.9,91,54,17,28.94,28.88,10,2,11,0.00
2013-5-8,88.9,65.9,53.1,69.4,44.7,26.3,95,55,12,28.97,28.91,6,0,7,0.00
2013-5-9,87.1,64.5,53.8,60.7,51.7,26.3,97,73,13,28.97,28.76,12,2,14,0.12
2013-5-10,72.9,58.3,48.2,62.7,51.2,42.9,97,79,44,28.85,28.73,10,4,11,0.08
2013-5-11,63.7,47.0,37.8,49.2,38.3,29.7,97,73,41,28.97,28.79,13,3,15,0.24
2013-5-12,58.8,44.3,35.8,34.5,20.5,8.9,88,44,17,29.06,28.94,13,2,15,0.00
2013-5-13,71.6,51.8,35.4,38.0,18.8,8.9,76,31,14,29.12,28.97,11,2,15,0.00
2013-5-14,89.6,69.9,50.0,48.8,34.4,17.4,45,29,12,29.03,28.70,17,4,17,0.00
2013-5-15,89.8,74.1,61.0,63.6,46.9,28.2,94,47,12,28.85,28.70,19,4,20,0.08
2013-5-16,89.8,71.4,61.0,69.4,45.6,23.7,95,51,12,28.97,28.76,6,1,9,0.08
2013-5-17,86.7,66.9,58.5,64.6,58.3,35.1,97,81,16,29.03,28.91,10,1,14,1.69
2013-5-18,84.0,69.2,59.4,63.0,56.6,45.6,97,69,29,29.03,28.91,9,1,10,0.00
2013-5-19,96.4,75.6,59.2,67.9,53.7,37.0,86,53,13,28.94,28.82,7,1,9,0.00
2013-5-20,93.0,77.8,68.7,70.2,58.4,41.9,94,56,19,28.91,28.76,27,2,27,0.00
2013-5-21,90.9,74.4,64.4,62.3,52.3,38.2,88,51,17,28.82,28.70,15,3,27,0.00
2013-5-22,81.7,66.9,59.4,67.2,57.3,44.1,97,76,29,28.76,28.67,12,2,15,0.47
2013-5-23,69.3,57.6,50.2,60.8,50.3,38.8,97,78,43,29.21,28.73,13,3,14,0.04
2013-5-24,78.8,54.9,43.5,46.0,29.8,13.8,96,45,13,29.29,29.09,8,1,10,0.00
2013-5-25,71.6,57.1,43.3,39.7,27.9,17.2,79,37,14,29.32,29.18,7,1,10,0.00
2013-5-26,79.0,61.5,45.3,49.9,32.2,18.5,92,40,13,29.23,29.09,9,2,10,0.24
2013-5-27,76.1,64.2,52.0,66.7,56.0,26.6,97,79,26,29.15,28.85,15,3,16,1.65
2013-5-28,86.2,74.4,63.9,66.4,57.7,48.3,97,59,27,28.94,28.85,14,3,17,0.00
2013-5-29,91.9,76.5,69.8,56.8,49.1,38.8,63,41,17,29.03,28.88,11,3,16,0.00
2013-5-30,92.8,75.3,67.1,69.2,59.1,42.4,89,62,18,29.03,28.91,11,2,18,0.43
2013-5-31,81.5,72.2,64.9,68.3,63.7,56.5,97,76,44,28.97,28.79,12,2,28,0.39
2013-6-1,82.2,70.0,62.2,68.1,60.4,47.7,97,75,31,28.85,28.70,18,4,18,0.43
2013-6-2,75.4,62.1,53.4,61.5,50.5,37.0,96,67,35,28.97,28.73,12,3,14,0.04
2013-6-3,83.3,58.6,45.9,45.9,35.6,18.1,89,50,13,29.09,28.94,7,1,10,0.00
2013-6-4,81.9,64.8,46.4,61.3,33.5,22.5,90,38,14,29.12,29.03,10,3,11,0.00
2013-6-5,90.7,68.7,54.9,45.0,33.1,24.7,60,30,12,29.06,28.79,8,3,12,0.00
2013-6-6,83.5,64.9,57.7,55.3,45.8,33.6,91,56,19,28.85,28.76,9,2,11,0.04
2013-6-7,83.7,64.6,54.1,57.5,45.2,31.2,92,56,16,28.91,28.79,7,1,8,0.04
2013-6-8,88.0,69.9,54.1,55.3,43.5,26.3,84,47,13,29.00,28.85,9,2,9,0.04
2013-6-9,91.6,73.0,61.9,64.4,52.6,29.6,87,58,12,29.00,28.73,9,2,14,0.43
2013-6-10,82.8,69.6,64.2,68.0,59.7,39.3,97,77,23,28.88,28.73,12,2,18,0.43
2013-6-11,91.0,72.8,63.3,66.9,59.7,35.5,97,72,15,28.91,28.76,9,2,14,0.12
2013-6-12,94.8,75.8,66.0,72.8,63.4,47.5,97,73,20,28.88,28.56,12,2,15,1.65
2013-6-13,83.3,66.8,57.9,68.7,50.9,33.5,97,64,20,28.97,28.56,12,2,12,1.73
2013-6-14,92.8,70.3,56.8,68.8,47.2,27.0,96,52,11,29.06,28.91,5,0,7,0.00
2013-6-15,85.6,69.4,58.8,66.8,55.1,38.2,96,65,19,29.06,28.88,12,1,18,0.04
2013-6-16,86.9,72.1,66.4,66.6,60.8,49.5,96,71,28,28.91,28.88,15,3,15,0.04
2013-6-17,93.4,75.6,65.8,68.8,55.7,34.7,96,59,14,28.91,28.82,7,1,9,0.00
2013-6-18,91.6,65.6,56.5,72.1,54.2,29.5,94,70,12,29.06,28.82,7,2,9,0.00
2013-6-19,91.2,69.4,56.5,56.7,41.1,26.9,89,43,12,29.12,28.97,9,2,10,0.00
2013-6-20,98.1,75.3,57.9,54.9,44.5,30.2,73,39,10,29.15,29.06,7,1,10,0.00
2013-6-21,95.2,76.6,64.0,62.1,49.9,30.4,71,45,11,29.15,28.97,10,0,12,0.00
2013-6-22,95.7,75.3,67.6,66.3,60.7,44.0,90,66,17,29.09,28.97,9,1,12,0.00
2013-6-23,93.9,73.8,67.8,70.2,63.0,39.8,96,77,16,29.06,28.97,10,1,13,0.43
2013-6-24,96.8,76.9,68.2,73.5,60.8,41.4,96,68,16,29.06,28.94,10,2,12,0.04
2013-6-25,95.7,78.4,68.5,69.7,60.9,42.7,95,62,17,28.97,28.82,13,2,17,0.04
2013-6-26,93.2,75.7,68.2,74.6,64.0,52.7,94,70,28,28.88,28.70,13,1,13,0.55
2013-6-27,92.1,77.2,70.0,73.3,62.5,50.2,97,65,24,28.73,28.61,10,2,12,0.31
2013-6-28,88.0,70.6,63.1,70.5,60.0,39.6,97,76,20,28.64,28.53,11,2,15,0.47
2013-6-29,84.9,68.8,62.6,66.8,60.0,44.7,97,77,26,28.70,28.53,12,1,13,0.87
2013-6-30,87.1,69.3,62.1,69.7,57.5,38.7,97,70,19,28.85,28.64,10,1,12,0.91
2013-7-1,74.7,65.9,62.1,62.0,56.1,44.8,89,72,36,28.94,28.85,7,2,10,0.55
2013-7-2,87.8,67.2,60.1,69.1,63.1,48.7,97,89,26,29.00,28.91,6,1,10,1.30
2013-7-3,90.7,75.6,65.3,82.3,58.2,40.8,97,61,18,29.09,28.97,11,1,11,0.00
2013-7-4,87.6,72.3,64.4,68.2,61.2,44.9,94,73,23,29.12,29.03,5,1,8,0.00
2013-7-5,89.6,75.3,66.7,68.2,59.7,42.5,93,65,21,29.09,29.03,7,1,9,0.00
2013-7-6,82.2,71.1,67.3,71.8,65.2,53.1,94,83,37,29.06,28.97,7,1,8,0.04
2013-7-7,92.1,75.2,65.5,67.6,61.1,46.3,96,66,21,29.06,28.97,8,1,10,0.00
2013-7-8,91.6,77.9,69.1,70.2,64.3,52.8,89,66,27,29.06,28.97,10,2,13,0.00
2013-7-9,93.7,80.7,72.1,70.9,66.4,56.7,88,64,30,29.00,28.85,11,3,12,0.00
2013-7-10,89.6,78.4,66.4,74.2,66.7,51.0,96,69,41,29.00,28.82,17,3,23,0.24
2013-7-11,87.8,67.7,59.7,55.1,49.6,34.3,77,58,15,29.06,29.00,6,0,8,0.00
2013-7-12,91.6,72.6,57.2,74.7,48.0,29.8,91,50,12,29.09,29.03,9,1,10,0.00
2013-7-13,91.6,74.6,60.3,71.9,54.9,40.7,91,57,17,29.15,29.06,11,2,15,0.00
2013-7-14,95.7,80.3,65.8,73.9,60.8,42.8,95,59,17,29.21,29.09,10,3,10,0.00
2013-7-15,101.8,81.5,71.2,73.8,61.7,39.5,89,59,12,29.26,29.18,10,1,10,0.00
2013-7-16,101.7,82.1,71.2,81.5,63.9,44.1,90,62,15,29.29,29.23,4,0,7,0.00
2013-7-17,100.2,86.9,72.3,72.7,58.1,42.9,91,47,15,29.29,29.15,7,2,10,0.00
2013-7-18,101.3,84.4,76.5,68.3,61.3,43.7,76,53,15,29.09,28.94,7,1,9,0.00
2013-7-19,96.4,82.9,73.9,71.6,63.2,47.8,87,56,20,29.00,28.79,12,3,17,0.00
2013-7-20,84.9,75.1,69.8,73.3,66.7,59.6,95,77,44,28.91,28.79,12,2,15,0.47
2013-7-21,94.1,78.1,67.1,78.2,61.3,44.6,97,63,19,28.94,28.82,7,1,8,1.02
2013-7-22,94.5,73.1,66.9,72.4,64.2,42.0,97,79,17,28.85,28.70,7,1,9,1.10
2013-7-23,89.8,71.3,55.0,73.6,55.8,42.6,95,63,23,28.91,28.70,13,3,13,0.00
2013-7-24,82.8,65.2,54.1,55.6,43.5,26.7,87,52,14,29.03,28.85,11,1,12,0.00
2013-7-25,89.2,66.5,52.7,72.5,45.4,27.6,93,56,12,29.06,28.97,8,1,9,0.00
2013-7-26,89.8,71.3,56.3,62.5,49.4,30.0,91,55,12,29.06,28.82,10,2,10,0.00
2013-7-27,80.8,65.2,50.4,66.7,50.3,33.2,95,65,20,28.91,28.79,14,2,15,0.04
2013-7-28,74.3,61.1,50.4,51.2,41.9,29.3,90,55,21,29.03,28.88,16,2,18,0.00
2013-7-29,81.0,63.7,52.0,54.1,46.9,31.7,89,61,19,29.15,29.00,10,1,12,0.00
2013-7-30,86.2,70.0,55.6,68.9,52.2,33.5,91,60,16,29.18,29.03,7,1,8,0.00
2013-7-31,75.0,68.4,63.1,67.9,63.7,58.9,96,85,69,29.06,28.88,6,0,7,0.00
2013-8-1,86.9,68.8,58.5,64.6,53.0,36.8,97,65,19,28.94,28.88,12,1,14,0.00
2013-8-2,87.8,70.0,57.6,65.0,54.6,40.8,97,64,20,28.94,28.85,15,2,21,1.34
2013-8-3,89.2,68.0,54.1,73.9,52.2,38.1,97,64,18,29.09,28.91,7,1,9,1.34
2013-8-4,88.3,67.8,54.1,63.5,48.0,27.9,88,57,13,29.12,29.03,9,0,9,0.00
2013-8-5,87.8,67.8,59.4,64.1,53.9,34.2,89,67,15,29.06,28.88,9,1,12,0.00
2013-8-6,64.2,63.5,62.8,58.3,56.2,55.0,82,77,73,28.94,28.88,5,2,7,0.00
2013-9-9,80.8,79.1,77.2,61.6,58.9,57.0,58,50,45,29.06,29.03,5,1,9,0.00
2013-9-10,78.6,75.9,73.2,63.3,61.5,59.5,71,61,52,29.06,29.03,6,1,7,0.00
2013-9-11,99.5,80.1,71.6,68.3,51.9,31.9,85,45,10,29.09,28.91,12,2,14,0.79
2013-9-12,86.7,69.0,51.4,70.9,54.5,34.2,97,66,16,29.00,28.82,8,2,14,0.79
2013-9-13,72.1,55.6,42.6,51.1,36.0,20.7,86,55,16,29.12,28.94,10,1,10,0.00
2013-9-14,78.4,55.7,40.1,47.0,31.6,18.1,92,49,12,29.15,29.03,7,1,8,0.00
2013-9-15,82.2,60.4,46.9,57.6,44.8,23.8,97,67,14,29.15,28.94,10,2,12,0.16
2013-9-16,69.1,56.3,46.9,59.2,48.0,33.6,97,77,27,29.29,29.06,7,1,9,0.04
2013-9-17,79.2,61.1,45.9,49.8,39.7,24.1,97,52,15,29.29,29.09,11,2,11,0.00
2013-9-18,89.2,70.8,58.8,63.2,47.8,27.2,84,53,12,29.12,28.97,7,1,8,0.91
2013-9-19,84.2,71.0,65.5,69.9,66.0,55.4,97,85,38,29.03,28.85,8,1,10,0.94
2013-9-20,83.7,70.5,61.2,70.3,65.3,53.8,97,86,37,28.91,28.70,9,2,16,0.59
2013-9-21,74.3,58.3,47.7,65.9,43.9,27.3,97,65,19,28.91,28.70,10,2,11,0.08
2013-9-22,75.6,55.5,44.1,52.5,36.3,20.9,93,58,15,29.03,28.85,6,1,9,0.00
2013-9-23,75.4,56.5,42.8,47.7,35.8,22.5,97,55,15,29.09,29.00,9,3,11,0.00
2013-9-24,78.1,58.5,44.1,47.8,36.4,22.5,96,52,15,29.06,28.85,9,2,10,0.00
2013-9-25,83.3,60.7,48.9,50.5,41.1,23.8,93,59,14,28.97,28.85,9,1,12,0.00
2013-9-26,85.6,62.1,48.9,55.6,39.6,23.7,95,52,13,29.09,28.91,8,1,12,0.00
2013-9-27,88.7,63.6,47.5,50.8,39.6,23.2,92,51,13,29.15,29.06,7,2,8,0.00
2013-9-28,88.5,67.2,51.6,52.4,43.5,26.9,88,51,13,29.12,28.94,7,1,10,0.00
2013-9-29,64.4,60.4,55.4,63.5,57.3,50.2,97,91,62,29.00,28.94,7,0,7,0.31
2013-9-30,79.2,63.1,55.4,62.6,54.0,34.3,97,79,21,28.97,28.88,9,1,10,0.00
2013-10-1,77.5,65.0,58.5,63.9,57.0,44.6,97,78,32,29.03,28.94,8,1,13,0.00
2013-10-2,85.8,68.5,60.6,69.5,60.7,47.7,97,80,29,29.06,28.97,8,0,8,0.00
2013-10-3,85.8,71.5,64.9,67.4,59.1,46.8,95,70,27,29.00,28.91,9,1,12,0.00
2013-10-4,88.3,72.6,66.7,66.6,61.0,48.2,93,72,26,29.00,28.94,8,1,11,0.04
2013-10-5,82.0,70.0,65.1,71.0,64.8,55.0,97,85,40,29.00,28.76,10,1,10,0.71
2013-10-6,67.3,56.4,42.8,66.2,51.3,31.1,97,84,48,28.82,28.67,10,2,14,1.14
2013-10-7,62.2,49.2,42.8,45.5,38.5,30.1,96,70,31,29.15,28.76,14,2,17,0.00
2013-10-8,78.3,53.5,42.8,52.8,35.7,20.7,95,60,15,29.21,29.12,7,0,8,0.00
2013-10-9,79.3,56.3,41.7,48.1,35.3,21.9,92,53,15,29.21,29.12,9,1,9,0.00
2013-10-10,81.7,58.0,42.8,51.6,33.6,18.9,85,47,13,29.15,29.03,6,0,6,0.00
2013-10-11,86.0,60.9,44.4,47.6,37.1,24.4,85,49,13,29.06,28.97,7,1,8,0.00
2013-10-12,54.1,51.3,48.9,47.2,45.7,43.0,89,81,66,29.03,29.00,0,0,0,0.00
2013-10-19,68.4,61.3,52.9,29.4,21.9,17.9,40,23,17,28.88,28.85,12,4,15,0.00
2013-10-20,64.2,53.6,50.4,31.2,28.5,18.4,47,38,18,28.88,28.85,11,4,15,0.00
2013-10-21,62.8,46.2,31.1,46.0,29.1,18.9,85,52,26,28.94,28.82,13,4,13,0.00
2013-10-22,54.1,37.5,28.6,34.7,24.9,7.4,94,67,18,28.97,28.76,10,2,12,0.12
2013-10-23,47.7,38.5,33.6,42.7,26.1,12.9,97,65,28,28.97,28.76,12,3,13,0.20
2013-10-24,46.2,35.9,27.9,31.1,20.3,11.4,82,54,25,29.26,28.94,12,4,15,0.00
2013-10-25,51.1,38.5,27.9,22.4,13.7,5.9,79,39,18,29.35,29.00,12,3,14,0.00
2013-10-26,53.8,40.5,33.4,29.9,21.4,13.5,81,50,26,29.12,28.82,13,3,22,0.00
2013-10-27,49.8,34.6,29.5,32.1,28.1,18.9,90,79,29,29.03,28.97,6,1,6,0.00
2013-11-18,37.9,34.6,31.8,22.5,16.7,13.9,58,48,40,29.26,29.23,4,0,5,0.00
2013-11-19,33.3,30.2,28.8,20.1,19.0,16.6,68,63,50,29.26,29.26,5,1,5,0.00